EVA712 RCTP-ZSPD

Flight info

Callsign EVA712
Flight time 1h 29m
Altitude 29000
Route PIANO1A PIANO L3 VIOLA R596 SULEM/K0826S0890 R596 DST B221 SHZ W58 BK BK82A
Aircraft A321/M-SDE3FGHIRWY/LB1

Departure

Time 2026-05-06 13:50
Airport Taiwan Taoyuan International Airport (RCTP)

Arrival

Time 2026-05-06 15:19
Airport Shanghai Pudong International Airport (ZSPD)
Time Latitude Longitude Altitude Speed Heading
2026-05-06 13:05 25.07468 121.23262 101 ft 0 kts 319°
2026-05-06 13:35 25.07466 121.23264 101 ft 1 kts 319°
2026-05-06 13:35 25.07453 121.23276 100 ft 3 kts 319°
2026-05-06 13:36 25.07437 121.23291 100 ft 3 kts 319°
2026-05-06 13:36 25.07422 121.23305 101 ft 3 kts 319°
2026-05-06 13:36 25.07407 121.23320 99 ft 3 kts 319°
2026-05-06 13:36 25.07393 121.23334 101 ft 3 kts 296°
2026-05-06 13:37 25.07389 121.23353 101 ft 3 kts 258°
2026-05-06 13:37 25.07396 121.23372 101 ft 3 kts 233°
2026-05-06 13:37 25.07400 121.23379 100 ft 0 kts 230°
2026-05-06 13:42 25.07400 121.23378 101 ft 1 kts 230°
2026-05-06 13:42 25.07372 121.23342 101 ft 9 kts 230°
2026-05-06 13:42 25.07329 121.23287 101 ft 12 kts 229°
2026-05-06 13:42 25.07275 121.23217 101 ft 11 kts 229°
2026-05-06 13:43 25.07217 121.23180 101 ft 9 kts 172°
2026-05-06 13:43 25.07172 121.23214 100 ft 6 kts 141°
2026-05-06 13:43 25.07142 121.23241 100 ft 5 kts 140°
2026-05-06 13:43 25.07138 121.23245 100 ft 0 kts 140°
2026-05-06 13:44 25.07119 121.23262 100 ft 8 kts 140°
2026-05-06 13:44 25.07055 121.23262 100 ft 11 kts 214°
2026-05-06 13:44 25.06977 121.23167 101 ft 22 kts 229°
2026-05-06 13:44 25.06861 121.23021 101 ft 26 kts 229°
2026-05-06 13:45 25.06747 121.22874 100 ft 25 kts 229°
2026-05-06 13:45 25.06531 121.22602 99 ft 22 kts 229°
2026-05-06 13:45 25.06433 121.22478 100 ft 18 kts 229°
2026-05-06 13:46 25.06361 121.22416 100 ft 12 kts 181°
2026-05-06 13:46 25.06306 121.22452 98 ft 5 kts 139°
2026-05-06 13:46 25.06303 121.22455 99 ft 0 kts 139°
2026-05-06 13:47 25.06302 121.22456 99 ft 2 kts 139°
2026-05-06 13:48 25.06263 121.22493 96 ft 11 kts 139°
2026-05-06 13:48 25.06244 121.22556 95 ft 7 kts 62°
2026-05-06 13:48 25.06252 121.22568 97 ft 0 kts 49°
2026-05-06 13:49 25.06384 121.22737 95 ft 65 kts 49°
2026-05-06 13:49 25.06724 121.23167 94 ft 114 kts 49°
2026-05-06 13:50 25.07546 121.24211 102 ft 168 kts 49°
2026-05-06 13:50 25.08320 121.25195 638 ft 168 kts 48°
2026-05-06 13:50 25.09083 121.26178 1189 ft 170 kts 51°
2026-05-06 13:50 25.09869 121.27217 1417 ft 186 kts 52°
2026-05-06 13:51 25.10743 121.28377 1588 ft 205 kts 52°
2026-05-06 13:51 25.11752 121.29590 1765 ft 228 kts 38°
2026-05-06 13:51 25.13336 121.30125 2042 ft 255 kts 358°
2026-05-06 13:51 25.15102 121.29641 2598 ft 267 kts 342°
2026-05-06 13:52 25.16889 121.29005 3306 ft 272 kts 345°
2026-05-06 13:52 25.18768 121.28665 4085 ft 275 kts 354°
2026-05-06 13:52 25.20689 121.28561 4866 ft 277 kts 357°
2026-05-06 13:52 25.22627 121.28549 5597 ft 280 kts 358°
2026-05-06 13:53 25.24585 121.28554 6304 ft 283 kts 358°
2026-05-06 13:53 25.26570 121.28546 6979 ft 287 kts 357°
2026-05-06 13:53 25.28580 121.28515 7644 ft 290 kts 356°
2026-05-06 13:53 25.30633 121.28462 8315 ft 293 kts 355°
2026-05-06 13:54 25.32682 121.28397 8981 ft 296 kts 355°
2026-05-06 13:54 25.34044 121.28348 9428 ft 298 kts 355°
2026-05-06 13:54 25.36840 121.28455 10233 ft 305 kts
2026-05-06 13:54 25.38196 121.28876 10586 ft 311 kts 19°
2026-05-06 13:55 25.40163 121.30063 10719 ft 334 kts 37°
2026-05-06 13:55 25.41841 121.31942 10843 ft 354 kts 49°
2026-05-06 13:55 25.43459 121.34056 11218 ft 363 kts 49°
2026-05-06 13:55 25.45113 121.36192 11763 ft 367 kts 49°
2026-05-06 13:56 25.46788 121.38335 12333 ft 369 kts 48°
2026-05-06 13:56 25.48478 121.40485 12909 ft 371 kts 48°
2026-05-06 13:56 25.50172 121.42642 13493 ft 372 kts 48°
2026-05-06 13:56 25.51875 121.44809 14020 ft 374 kts 48°
2026-05-06 13:57 25.53587 121.46989 14472 ft 377 kts 48°
2026-05-06 13:57 25.55312 121.49191 14903 ft 380 kts 48°
2026-05-06 13:57 25.57075 121.51447 15340 ft 384 kts 48°
2026-05-06 13:57 25.58824 121.53691 15783 ft 387 kts 48°
2026-05-06 13:58 25.60589 121.55957 16235 ft 390 kts 48°
2026-05-06 13:58 25.62369 121.58244 16670 ft 393 kts 48°
2026-05-06 13:58 25.64158 121.60545 17115 ft 396 kts 48°
2026-05-06 13:58 25.65963 121.62869 17554 ft 399 kts 48°
2026-05-06 13:59 25.67784 121.65205 17988 ft 402 kts 47°
2026-05-06 13:59 25.69620 121.67557 18398 ft 405 kts 47°
2026-05-06 13:59 25.71468 121.69928 18767 ft 407 kts 47°
2026-05-06 13:59 25.73322 121.72313 19151 ft 410 kts 47°
2026-05-06 14:00 25.75184 121.74711 19523 ft 412 kts 48°
2026-05-06 14:00 25.77059 121.77130 19909 ft 414 kts 48°
2026-05-06 14:00 25.78940 121.79558 20285 ft 416 kts 48°
2026-05-06 14:00 25.80931 121.81881 20642 ft 417 kts 39°
2026-05-06 14:01 25.83227 121.83844 20999 ft 417 kts 34°
2026-05-06 14:01 25.85586 121.85737 21386 ft 419 kts 34°
2026-05-06 14:01 25.87957 121.87644 21760 ft 422 kts 34°
2026-05-06 14:01 25.90333 121.89560 22127 ft 424 kts 34°
2026-05-06 14:02 25.92720 121.91494 22502 ft 426 kts 34°
2026-05-06 14:02 25.95118 121.93439 22874 ft 428 kts 34°
2026-05-06 14:02 25.97531 121.95396 23213 ft 430 kts 34°
2026-05-06 14:02 25.99957 121.97363 23568 ft 433 kts 34°
2026-05-06 14:03 26.02392 121.99340 23862 ft 435 kts 34°
2026-05-06 14:03 26.04847 122.01317 24161 ft 436 kts 33°
2026-05-06 14:03 26.07331 122.03274 24455 ft 438 kts 33°
2026-05-06 14:03 26.09839 122.05222 24760 ft 440 kts 32°
2026-05-06 14:04 26.12390 122.07195 25055 ft 442 kts 32°
2026-05-06 14:04 26.14923 122.09158 25361 ft 445 kts 32°
2026-05-06 14:04 26.17433 122.11112 25656 ft 447 kts 32°
2026-05-06 14:04 26.20017 122.13134 25955 ft 449 kts 32°
2026-05-06 14:05 26.22570 122.15139 26249 ft 451 kts 32°
2026-05-06 14:05 26.25142 122.17160 26551 ft 453 kts 32°
2026-05-06 14:05 26.27726 122.19190 26833 ft 456 kts 32°
2026-05-06 14:05 26.30323 122.21227 27118 ft 458 kts 32°
2026-05-06 14:06 26.32935 122.23278 27394 ft 460 kts 32°
2026-05-06 14:06 26.35555 122.25338 27688 ft 462 kts 32°
2026-05-06 14:06 26.38185 122.27407 27970 ft 464 kts 32°
2026-05-06 14:06 26.40834 122.29488 28256 ft 466 kts 31°
2026-05-06 14:07 26.43490 122.31577 28527 ft 468 kts 31°
2026-05-06 14:07 26.46156 122.33678 28792 ft 470 kts 31°
2026-05-06 14:07 26.48832 122.35790 28995 ft 472 kts 31°
2026-05-06 14:07 26.51488 122.37888 29041 ft 462 kts 31°
2026-05-06 14:08 26.56668 122.41992 29041 ft 454 kts 31°
2026-05-06 14:08 26.61819 122.46059 29040 ft 453 kts 31°
2026-05-06 14:09 26.66960 122.50124 29045 ft 453 kts 31°
2026-05-06 14:09 26.72096 122.54197 29041 ft 452 kts 31°
2026-05-06 14:10 26.77260 122.58289 29030 ft 452 kts 31°
2026-05-06 14:10 26.82388 122.62354 29032 ft 452 kts 31°
2026-05-06 14:11 26.87511 122.66424 29037 ft 451 kts 31°
2026-05-06 14:11 26.92633 122.70500 29037 ft 451 kts 31°
2026-05-06 14:12 26.97745 122.74581 29039 ft 451 kts 31°
2026-05-06 14:12 27.02850 122.78652 29041 ft 451 kts 31°
2026-05-06 14:13 27.07959 122.82738 29044 ft 450 kts 31°
2026-05-06 14:13 27.13055 122.86820 29047 ft 450 kts 31°
2026-05-06 14:14 27.18352 122.90568 29048 ft 442 kts 18°
2026-05-06 14:14 27.21251 122.91606 29045 ft 435 kts
2026-05-06 14:14 27.24227 122.91999 29040 ft 427 kts 356°
2026-05-06 14:15 27.27164 122.91751 29045 ft 420 kts 345°
2026-05-06 14:15 27.29962 122.90894 29042 ft 415 kts 335°
2026-05-06 14:15 27.35374 122.88641 29036 ft 415 kts 335°
2026-05-06 14:16 27.40292 122.85480 29037 ft 405 kts 313°
2026-05-06 14:16 27.42056 122.83052 29038 ft 400 kts 299°
2026-05-06 14:16 27.43243 122.80230 29036 ft 398 kts 287°
2026-05-06 14:17 27.43797 122.77188 29089 ft 398 kts 274°
2026-05-06 14:17 27.43855 122.74063 29152 ft 401 kts 271°
2026-05-06 14:17 27.43866 122.67792 29151 ft 400 kts 271°
2026-05-06 14:18 27.43873 122.61521 29152 ft 400 kts 271°
2026-05-06 14:18 27.43883 122.55266 29149 ft 400 kts 271°
2026-05-06 14:19 27.43889 122.49000 29153 ft 400 kts 270°
2026-05-06 14:19 27.43916 122.42750 29147 ft 399 kts 274°
2026-05-06 14:20 27.44883 122.36605 29146 ft 399 kts 281°
2026-05-06 14:20 27.45962 122.30486 29145 ft 398 kts 281°
2026-05-06 14:21 27.47029 122.24362 29145 ft 398 kts 280°
2026-05-06 14:21 27.48094 122.18247 29147 ft 398 kts 280°
2026-05-06 14:22 27.49165 122.12104 29147 ft 397 kts 280°
2026-05-06 14:22 27.50226 122.05990 29139 ft 397 kts 280°
2026-05-06 14:23 27.51282 121.99893 29140 ft 396 kts 280°
2026-05-06 14:23 27.52332 121.93804 29141 ft 396 kts 280°
2026-05-06 14:24 27.53380 121.87711 29138 ft 396 kts 280°
2026-05-06 14:24 27.54426 121.81616 29139 ft 396 kts 280°
2026-05-06 14:25 27.55470 121.75523 29134 ft 396 kts 280°
2026-05-06 14:25 27.56507 121.69431 29137 ft 396 kts 279°
2026-05-06 14:26 27.57544 121.63344 29138 ft 395 kts 279°
2026-05-06 14:26 27.58578 121.57253 29137 ft 395 kts 279°
2026-05-06 14:27 27.59641 121.51179 29131 ft 395 kts 280°
2026-05-06 14:27 27.60554 121.46093 29130 ft 395 kts 280°
2026-05-06 14:28 27.61636 121.40015 29133 ft 395 kts 280°
2026-05-06 14:28 27.62713 121.33939 29135 ft 395 kts 280°
2026-05-06 14:29 27.63776 121.27854 29133 ft 395 kts 280°
2026-05-06 14:29 27.64843 121.21770 29128 ft 395 kts 280°
2026-05-06 14:30 27.65915 121.15681 29128 ft 396 kts 280°
2026-05-06 14:30 27.66977 121.09595 29128 ft 396 kts 280°
2026-05-06 14:31 27.68032 121.03500 29128 ft 396 kts 279°
2026-05-06 14:31 27.69086 120.97389 29129 ft 396 kts 279°
2026-05-06 14:32 27.70142 120.91291 29124 ft 397 kts 279°
2026-05-06 14:32 27.71200 120.85176 29130 ft 397 kts 280°
2026-05-06 14:33 27.72253 120.79062 29132 ft 397 kts 279°
2026-05-06 14:33 27.73294 120.72941 29132 ft 397 kts 279°
2026-05-06 14:34 27.73967 120.69915 29125 ft 399 kts 290°
2026-05-06 14:34 27.75376 120.67209 29127 ft 404 kts 307°
2026-05-06 14:34 27.77514 120.65120 29125 ft 413 kts 325°
2026-05-06 14:34 27.80237 120.63897 29126 ft 424 kts 344°
2026-05-06 14:35 27.83213 120.63733 29129 ft 433 kts 359°
2026-05-06 14:35 27.86223 120.64008 29126 ft 435 kts 360°
2026-05-06 14:35 27.92268 120.64589 29125 ft 437 kts 360°
2026-05-06 14:36 27.98337 120.65174 29128 ft 438 kts 360°
2026-05-06 14:36 28.04419 120.65738 29128 ft 439 kts 360°
2026-05-06 14:37 28.10509 120.66321 29136 ft 440 kts 360°
2026-05-06 14:37 28.16614 120.66930 29138 ft 440 kts 360°
2026-05-06 14:38 28.22722 120.67538 29138 ft 441 kts 360°
2026-05-06 14:38 28.28839 120.68136 29144 ft 441 kts 360°
2026-05-06 14:39 28.34953 120.68733 29144 ft 441 kts 360°
2026-05-06 14:39 28.41113 120.69342 29142 ft 442 kts 360°
2026-05-06 14:40 28.47234 120.69947 29143 ft 442 kts 360°
2026-05-06 14:40 28.53357 120.70566 29143 ft 442 kts
2026-05-06 14:41 28.59475 120.71189 29135 ft 441 kts 360°
2026-05-06 14:41 28.65597 120.71804 29135 ft 441 kts 360°
2026-05-06 14:42 28.71712 120.72421 29132 ft 442 kts
2026-05-06 14:42 28.77834 120.73088 29129 ft 442 kts
2026-05-06 14:43 28.83960 120.73781 29126 ft 442 kts
2026-05-06 14:43 28.90079 120.74447 29122 ft 442 kts
2026-05-06 14:44 28.96206 120.75069 29117 ft 442 kts 360°
2026-05-06 14:45 29.05382 120.75999 29114 ft 442 kts 360°
2026-05-06 14:45 29.11502 120.76625 29106 ft 441 kts 360°
2026-05-06 14:46 29.17667 120.77260 29104 ft 442 kts 360°
2026-05-06 14:46 29.23784 120.77889 29108 ft 442 kts 360°
2026-05-06 14:47 29.29908 120.78531 29097 ft 442 kts
2026-05-06 14:47 29.36030 120.79179 29103 ft 442 kts 360°
2026-05-06 14:48 29.42160 120.79818 29095 ft 442 kts 360°
2026-05-06 14:48 29.48276 120.80443 29092 ft 441 kts 360°
2026-05-06 14:49 29.54395 120.81198 29083 ft 446 kts
2026-05-06 14:49 29.57366 120.82287 29077 ft 453 kts 20°
2026-05-06 14:49 29.60133 120.84080 29077 ft 460 kts 32°
2026-05-06 14:49 29.62547 120.86516 29073 ft 465 kts 45°
2026-05-06 14:50 29.64512 120.89491 29008 ft 473 kts 54°
2026-05-06 14:50 29.66334 120.92657 28744 ft 475 kts 54°
2026-05-06 14:50 29.68148 120.95822 28479 ft 474 kts 54°
2026-05-06 14:50 29.69958 120.98988 28221 ft 473 kts 54°
2026-05-06 14:51 29.71754 121.02133 27782 ft 469 kts 54°
2026-05-06 14:51 29.73545 121.05273 27170 ft 468 kts 54°
2026-05-06 14:51 29.75332 121.08403 26579 ft 467 kts 54°
2026-05-06 14:51 29.77111 121.11514 25991 ft 465 kts 54°
2026-05-06 14:52 29.78776 121.14425 25446 ft 464 kts 54°
2026-05-06 14:52 29.80549 121.17521 24880 ft 462 kts 54°
2026-05-06 14:52 29.82316 121.20606 24328 ft 460 kts 55°
2026-05-06 14:52 29.84094 121.23718 23780 ft 458 kts 55°
2026-05-06 14:53 29.85833 121.26767 23199 ft 455 kts 55°
2026-05-06 14:53 29.87565 121.29793 22689 ft 449 kts 53°
2026-05-06 14:53 29.89549 121.32528 22199 ft 440 kts 42°
2026-05-06 14:53 29.91874 121.34745 21742 ft 430 kts 31°
2026-05-06 14:54 29.94431 121.36463 21298 ft 422 kts 25°
2026-05-06 14:54 29.97001 121.38063 20839 ft 417 kts 25°
2026-05-06 14:54 29.99535 121.39646 20399 ft 412 kts 25°
2026-05-06 14:54 30.02039 121.41213 19930 ft 408 kts 26°
2026-05-06 14:55 30.04529 121.42775 19465 ft 405 kts 26°
2026-05-06 14:55 30.06996 121.44323 19002 ft 403 kts 26°
2026-05-06 14:55 30.09452 121.45862 18530 ft 400 kts 26°
2026-05-06 14:55 30.11894 121.47389 18043 ft 398 kts 26°
2026-05-06 14:56 30.14322 121.48909 17568 ft 395 kts 26°
2026-05-06 14:56 30.16726 121.50418 17108 ft 391 kts 26°
2026-05-06 14:56 30.19106 121.51914 16655 ft 388 kts 26°
2026-05-06 14:56 30.21470 121.53401 16204 ft 385 kts 26°
2026-05-06 14:57 30.23815 121.54877 15759 ft 382 kts 27°
2026-05-06 14:57 30.26146 121.56345 15322 ft 380 kts 27°
2026-05-06 14:57 30.28450 121.57817 14868 ft 378 kts 27°
2026-05-06 14:57 30.30737 121.59298 14422 ft 376 kts 28°
2026-05-06 14:58 30.33012 121.60780 13972 ft 374 kts 28°
2026-05-06 14:58 30.35271 121.62255 13478 ft 372 kts 28°
2026-05-06 14:58 30.37513 121.63725 13025 ft 369 kts 28°
2026-05-06 14:58 30.39717 121.65228 12575 ft 366 kts 29°
2026-05-06 14:59 30.41887 121.66753 12112 ft 364 kts 30°
2026-05-06 14:59 30.44041 121.68289 11646 ft 362 kts 30°
2026-05-06 14:59 30.46173 121.69815 11197 ft 360 kts 30°
2026-05-06 14:59 30.48302 121.71330 10727 ft 358 kts 30°
2026-05-06 15:00 30.50416 121.72825 10365 ft 350 kts 29°
2026-05-06 15:00 30.51793 121.73797 10280 ft 336 kts 29°
2026-05-06 15:00 30.53729 121.75161 10166 ft 317 kts 29°
2026-05-06 15:00 30.55578 121.76465 9838 ft 307 kts 29°
2026-05-06 15:01 30.57456 121.77544 9625 ft 299 kts 17°
2026-05-06 15:01 30.59455 121.78152 9493 ft 297 kts 10°
2026-05-06 15:01 30.61467 121.78692 9363 ft 297 kts 11°
2026-05-06 15:01 30.63477 121.79236 9238 ft 296 kts 11°
2026-05-06 15:02 30.65488 121.79784 9109 ft 296 kts 11°
2026-05-06 15:02 30.67492 121.80329 8987 ft 296 kts 11°
2026-05-06 15:02 30.69495 121.80876 8866 ft 296 kts 11°
2026-05-06 15:02 30.71496 121.81423 8738 ft 295 kts 11°
2026-05-06 15:03 30.73491 121.81970 8612 ft 295 kts 11°
2026-05-06 15:03 30.75484 121.82513 8498 ft 294 kts 11°
2026-05-06 15:03 30.77477 121.83054 8369 ft 294 kts 11°
2026-05-06 15:03 30.79471 121.83594 8251 ft 294 kts 11°
2026-05-06 15:04 30.81462 121.84136 8125 ft 294 kts 11°
2026-05-06 15:04 30.83450 121.84681 8009 ft 293 kts 11°
2026-05-06 15:04 30.85393 121.85214 7886 ft 293 kts 11°
2026-05-06 15:04 30.87375 121.85760 7769 ft 293 kts 11°
2026-05-06 15:05 30.89359 121.86302 7648 ft 292 kts 11°
2026-05-06 15:05 30.91364 121.86848 7524 ft 292 kts 11°
2026-05-06 15:05 30.93307 121.87514 7403 ft 293 kts 21°
2026-05-06 15:05 30.95106 121.88647 7284 ft 294 kts 29°
2026-05-06 15:06 30.96866 121.89858 7168 ft 294 kts 29°
2026-05-06 15:06 30.98622 121.91064 7048 ft 293 kts 29°
2026-05-06 15:06 31.00379 121.92273 6927 ft 293 kts 29°
2026-05-06 15:06 31.02133 121.93477 6820 ft 292 kts 29°
2026-05-06 15:07 31.03877 121.94674 6814 ft 290 kts 29°
2026-05-06 15:07 31.05573 121.95838 6819 ft 275 kts 29°
2026-05-06 15:07 31.07298 121.96707 6815 ft 268 kts 11°
2026-05-06 15:07 31.09133 121.96905 6809 ft 264 kts 353°
2026-05-06 15:08 31.10913 121.96463 6795 ft 261 kts 339°
2026-05-06 15:08 31.12642 121.95800 6796 ft 262 kts 339°
2026-05-06 15:08 31.14371 121.95148 6661 ft 260 kts 340°
2026-05-06 15:08 31.16088 121.94505 6331 ft 259 kts 340°
2026-05-06 15:09 31.17802 121.93863 6005 ft 258 kts 339°
2026-05-06 15:09 31.19504 121.93226 5700 ft 256 kts 339°
2026-05-06 15:09 31.21200 121.92591 5377 ft 255 kts 339°
2026-05-06 15:09 31.22884 121.91958 5065 ft 253 kts 339°
2026-05-06 15:10 31.24573 121.91318 4780 ft 251 kts 339°
2026-05-06 15:10 31.26230 121.90692 4463 ft 250 kts 339°
2026-05-06 15:10 31.27880 121.90071 4125 ft 249 kts 339°
2026-05-06 15:10 31.29533 121.89451 3764 ft 250 kts 339°
2026-05-06 15:11 31.31196 121.88828 3410 ft 251 kts 339°
2026-05-06 15:11 31.32870 121.88194 3009 ft 254 kts 339°
2026-05-06 15:11 31.34500 121.87556 2842 ft 240 kts 339°
2026-05-06 15:11 31.36041 121.86926 2716 ft 230 kts 339°
2026-05-06 15:12 31.37504 121.86262 2514 ft 222 kts 327°
2026-05-06 15:12 31.38533 121.85006 2227 ft 212 kts 290°
2026-05-06 15:12 31.38737 121.83376 2034 ft 202 kts 257°
2026-05-06 15:12 31.38476 121.81759 2029 ft 203 kts 252°
2026-05-06 15:13 31.38136 121.80153 2027 ft 202 kts 251°
2026-05-06 15:13 31.37789 121.78576 2029 ft 194 kts 251°
2026-05-06 15:13 31.37453 121.77087 2025 ft 185 kts 244°
2026-05-06 15:13 31.36667 121.76010 2025 ft 173 kts 205°
2026-05-06 15:14 31.35541 121.75560 2020 ft 171 kts 193°
2026-05-06 15:14 31.34378 121.75243 2020 ft 172 kts 191°
2026-05-06 15:14 31.33186 121.75148 2017 ft 173 kts 170°
2026-05-06 15:14 31.32030 121.75555 2016 ft 173 kts 163°
2026-05-06 15:15 31.30889 121.75990 2015 ft 172 kts 163°
2026-05-06 15:15 31.29755 121.76421 2013 ft 171 kts 163°
2026-05-06 15:15 31.28624 121.76849 2014 ft 171 kts 163°
2026-05-06 15:15 31.27512 121.77271 2001 ft 161 kts 163°
2026-05-06 15:16 31.26470 121.77665 1996 ft 156 kts 164°
2026-05-06 15:16 31.25448 121.78052 1889 ft 153 kts 164°
2026-05-06 15:16 31.24475 121.78420 1715 ft 142 kts 164°
2026-05-06 15:16 31.23552 121.78769 1547 ft 138 kts 163°
2026-05-06 15:17 31.22647 121.79112 1373 ft 136 kts 163°
2026-05-06 15:17 31.21739 121.79450 1182 ft 135 kts 163°
2026-05-06 15:17 31.20850 121.79786 1003 ft 134 kts 162°
2026-05-06 15:17 31.19962 121.80123 832 ft 135 kts 162°
2026-05-06 15:18 31.19067 121.80464 656 ft 134 kts 161°
2026-05-06 15:18 31.18176 121.80801 490 ft 135 kts 160°
2026-05-06 15:18 31.17285 121.81137 312 ft 133 kts 161°
2026-05-06 15:18 31.16404 121.81476 142 ft 133 kts 161°
2026-05-06 15:19 31.15510 121.81810 27 ft 124 kts 162°
2026-05-06 15:19 31.14862 121.82056 22 ft 67 kts 162°
2026-05-06 15:19 31.14575 121.82162 22 ft 26 kts 164°
2026-05-06 15:19 31.14411 121.82185 23 ft 17 kts 184°
2026-05-06 15:20 31.14296 121.82162 22 ft 16 kts 190°
2026-05-06 15:20 31.14187 121.82139 23 ft 15 kts 190°
2026-05-06 15:20 31.14085 121.82141 23 ft 15 kts 169°
2026-05-06 15:20 31.13978 121.82180 23 ft 20 kts 162°
2026-05-06 15:21 31.13844 121.82230 23 ft 20 kts 162°
2026-05-06 15:21 31.13733 121.82272 23 ft 12 kts 162°
2026-05-06 15:21 31.13669 121.82243 23 ft 11 kts 244°
2026-05-06 15:21 31.13646 121.82164 25 ft 10 kts 252°
2026-05-06 15:22 31.13618 121.82060 23 ft 15 kts 252°
2026-05-06 15:22 31.13584 121.81940 23 ft 16 kts 252°
2026-05-06 15:22 31.13568 121.81849 22 ft 9 kts 289°
2026-05-06 15:22 31.13636 121.81807 23 ft 17 kts 342°
2026-05-06 15:23 31.13791 121.81749 23 ft 28 kts 342°
2026-05-06 15:23 31.13972 121.81681 23 ft 27 kts 342°
2026-05-06 15:23 31.14147 121.81614 25 ft 26 kts 342°
2026-05-06 15:23 31.14319 121.81549 24 ft 26 kts 342°
2026-05-06 15:24 31.14451 121.81500 24 ft 14 kts 342°
2026-05-06 15:24 31.14517 121.81445 23 ft 11 kts 277°
2026-05-06 15:24 31.14497 121.81361 25 ft 10 kts 252°
2026-05-06 15:24 31.14473 121.81274 23 ft 14 kts 252°
2026-05-06 15:25 31.14443 121.81164 23 ft 14 kts 252°
2026-05-06 15:25 31.14414 121.81059 23 ft 13 kts 252°
2026-05-06 15:25 31.14381 121.80941 23 ft 17 kts 252°
2026-05-06 15:25 31.14365 121.80840 23 ft 10 kts 294°
2026-05-06 15:26 31.14434 121.80799 23 ft 16 kts 342°
2026-05-06 15:26 31.14519 121.80768 23 ft 21 kts 342°
2026-05-06 15:26 31.14659 121.80715 23 ft 21 kts 342°
2026-05-06 15:26 31.14771 121.80672 23 ft 14 kts 342°
2026-05-06 15:27 31.14841 121.80661 24 ft 7 kts 31°
2026-05-06 15:27 31.14860 121.80705 23 ft 4 kts 72°
2026-05-06 15:27 31.14865 121.80724 23 ft 1 kts 72°
2026-05-06 15:27 31.14867 121.80728 23 ft 1 kts 72°
2026-05-06 15:28 31.14867 121.80730 23 ft 0 kts 72°